#timestamp,LO_Frequency,Hit,StdDev 
1511283615.2,286046996.0,P
1511283635.0,286046998.4,N
1511283635.9,286046998.4,N
1511283655.8,286047001.2,N
1511283675.6,286046995.2,N
1511283695.4,286046994.2,Y
1511283715.3,286046992.0,P
1511283735.1,286046987.0,P
1511283755.8,286046989.8,N
1511283775.7,286046983.7,Y
1511283795.5,286046993.7,P
1511283815.3,286046993.8,P
1511283835.2,286046991.6,P
1511283855.9,286046989.9,Y
1511283875.7,286046996.7,P
1511283895.6,286046997.7,N
1511283915.4,286046995.7,N
1511283935.2,286046994.8,N
1511283955.1,286046990.1,Y
1511283956.0,286046990.1,P
1511283975.8,286046997.3,N
1511283995.6,286046994.5,N
1511284015.5,286046996.7,N
1511284035.3,286046999.5,N
1511284055.1,286046998.7,N
1511284075.9,286046998.2,N
1511284095.7,286047000.7,N
1511284115.5,286047001.7,N
1511284135.3,286046997.8,N
1511284155.2,286046991.4,N
1511284175.0,286046991.8,N
1511284175.9,286046991.8,N
1511284195.7,286046990.8,N
1511284215.6,286046991.1,N
1511284235.4,286046987.1,Y
1511284255.2,286046996.2,P
1511284275.1,286046998.8,P
1511284276.0,286046998.8,N
1511284295.8,286046999.0,N
1511284315.6,286046999.4,N
1511284335.5,286046997.7,N
1511284355.3,286046998.4,N
1511284375.1,286047004.5,Y
1511284395.9,286047008.7,P
1511284415.7,286047003.7,N
1511284435.5,286047004.5,N
1511284455.4,286047006.7,N
1511284475.2,286047004.6,N
1511284495.0,286047001.7,N
1511284495.9,286047001.7,N
1511284515.8,286047002.8,N
1511284535.6,286047000.0,N
1511284555.4,286047003.2,N
1511284575.3,286047005.1,N
1511284595.1,286047008.7,Y
1511284596.0,286047008.7,P
1511284615.8,286047001.8,N
1511284635.7,286047000.2,N
1511284655.5,286047001.6,N
1511284675.3,286047004.1,N
1511284695.1,286047004.5,N
1511284715.9,286047005.7,N
1511284735.7,286047003.3,N
1511284755.5,286047001.0,N
1511284775.4,286046998.9,N
1511284795.2,286046998.4,N
1511284815.0,286046996.6,N
1511284815.9,286046996.6,N
1511284835.8,286047002.7,N
1511284855.6,286047005.1,N
1511284875.4,286047002.4,N
1511284895.3,286046994.1,N
1511284915.1,286046996.1,N
1511284916.0,286046996.1,N
1511284935.8,286046991.6,N
1511284955.7,286046995.4,N
1511284975.5,286046997.9,N
1511284995.3,286046995.9,N
1511285015.1,286046992.0,N
1511285035.9,286046988.6,N
1511285055.7,286046988.3,N
1511285075.5,286046993.2,N
1511285095.4,286046991.4,N
1511285115.2,286046990.1,N
1511285135.0,286046985.3,N
1511285135.9,286046985.3,N
1511285155.8,286046986.0,N
1511285175.6,286046985.7,N
1511285195.4,286046984.5,N
1511285215.3,286046984.5,N
1511285235.1,286046988.3,N
1511285236.0,286046988.3,N
1511285255.8,286046987.0,N
1511285275.7,286046986.4,N
1511285295.5,286046983.7,N
1511285315.3,286046986.9,N
1511285335.1,286046994.3,N
1511285355.9,286046995.8,N
1511285375.7,286046996.1,N
1511285395.5,286046992.7,N
1511285415.4,286046994.1,N
1511285435.2,286046997.4,N
1511285455.0,286047000.9,N
1511285455.9,286047000.9,N
1511285475.8,286047002.6,N
1511285495.6,286047006.0,N
1511285515.4,286047001.6,N
1511285535.3,286047005.4,N
1511285555.1,286047007.1,N
1511285556.0,286047007.1,N
1511285575.8,286047005.3,N
1511285595.7,286047007.6,N
1511285615.5,286047008.9,N
1511285635.3,286047006.8,N
1511285655.2,286047000.6,N
1511285675.9,286046999.7,N
1511285695.7,286046998.8,N
1511285715.6,286047001.4,N
1511285735.4,286046999.4,N
1511285755.2,286046997.0,N
1511285775.0,286047001.0,N
1511285775.9,286047001.0,N
1511285795.8,286047000.7,N
1511285815.6,286046994.6,N
1511285835.4,286046992.4,N
1511285855.3,286046992.5,N
1511285875.1,286046990.1,N
1511285895.8,286046990.3,N
1511285915.7,286046986.2,N
1511285935.5,286046984.0,N
1511285955.3,286046984.1,N
1511285975.2,286046979.2,Y
1511285995.9,286046979.4,P
1511286015.7,286046977.6,N
1511286035.6,286046972.5,N
1511286055.4,286046973.2,N
1511286075.2,286046973.8,N
1511286095.1,286046970.1,Y
1511286096.0,286046970.1,P
1511286115.8,286046993.6,N
1511286135.6,286046991.4,N
1511286155.5,286046990.1,N
1511286175.3,286046993.2,N
1511286195.1,286046994.4,N
1511286215.9,286046990.1,N
1511286235.7,286046991.8,N
1511286255.5,286046993.6,N
1511286275.3,286046990.1,N
1511286295.2,286046990.7,N
1511286315.0,286046994.0,N
1511286315.9,286046994.0,N
1511286335.7,286046994.6,N
1511286355.6,286046989.1,N
1511286375.4,286046985.7,N
1511286395.2,286046987.1,N
1511286415.1,286046989.7,N
1511286416.0,286046989.7,N
1511286435.8,286046990.4,N
1511286455.6,286046986.0,N
1511286475.5,286046984.8,N
1511286495.3,286046982.7,Y
1511286515.1,286046993.6,P
1511286535.9,286046994.7,N
1511286555.7,286046994.2,N
1511286575.5,286046994.4,N
1511286595.4,286046992.4,Y
1511286615.2,286047004.0,P
1511286635.0,286047005.9,N
1511286635.9,286047005.9,N
1511286655.8,286047009.5,N
1511286675.6,286047012.3,N
1511286695.4,286047009.8,N
1511286715.3,286047007.1,N
1511286735.1,286047004.7,N
1511286736.0,286047004.7,N
1511286755.8,286046998.4,N
1511286775.6,286046999.0,N
1511286795.5,286047002.8,N
1511286815.3,286047002.5,N
1511286835.1,286047004.7,N
1511286855.9,286047004.7,N
1511286875.7,286047002.9,N
1511286895.5,286047011.5,N
1511286915.4,286047010.9,N
1511286935.2,286047009.3,N
1511286955.0,286047006.5,N
1511286955.9,286047006.5,N
1511286975.8,286047006.1,N
1511286995.6,286047009.4,N
1511287015.4,286047013.9,Y
1511287035.3,286047012.3,P
1511287055.1,286047007.0,N
1511287056.0,286047007.0,N
1511287075.8,286047000.1,N
1511287095.7,286047001.8,N
1511287115.5,286047001.8,N
1511287135.3,286047002.3,N
1511287155.1,286047001.4,N
1511287175.9,286047001.3,N
1511287195.7,286047005.1,N
